View from above orbital plane
|
View from above satellite
|
Ground track
|
The orbit data is extracted from the following two-line orbital elements,
1 23233U 94057A 21015.88996586 -.00000027 00000-0 94022-5 0 9998
2 23233 98.9606 61.1252 0011646 150.9398 209.2425 14.15681092362038
Epoch (UTC): | 15 January 2021 21:21:33 |
Eccentricity: | 0.0011646 |
inclination: | 98.9606° |
perigee height: | 831 km |
apogee height: | 848 km |
right ascension of ascending node: | 61.1252° |
argument of perigee: | 150.9398° |
revolutions per day: | 14.15681092 |
mean anomaly at epoch: | 209.2425° |
orbit number at epoch: | 36203 |
The dashed part of the orbit path shows where the satellite is in the earth's shadow,
|
|